Regional Weather Roundup
Issued by NWS Charleston, SC

Current Version | Previous Version | Graphics & Text | Print | Product List | Glossary Off
Versions: 1 2 3 4 5 6 7 8 9 10 11 12 13 14 15 16 17 18 19 20 21 22 23 24 25 26 27 28 29 30 31 32 33 34 35 36 37 38 39 40 41 42 43 44 45 46 47 48 49 50

000
ASUS42 KCHS 051412
RWRCHS

REGIONAL WEATHER ROUNDUP
NATIONAL WEATHER SERVICE CHARLESTON SC
1000 AM EDT SAT SEP 05 2015

NOTE: "FAIR" INDICATES FEW OR NO CLOUDS BELOW 12,000 FEET WITH NO
SIGNIFICANT WEATHER AND/OR OBSTRUCTIONS TO VISIBILITY.

NOT ALL STATIONS ARE QUALITY CONTROLLED BY THE NATIONAL
WEATHER SERVICE. USE DATA WITH CAUTION...ESPECIALLY
DEWPOINT OBSERVATIONS.

SCZ027-030-031-034>040-042>050-051500-
...SOUTHEAST SOUTH CAROLINA...

CITY           SKY/WX    TMP DP  RH WIND       PRES   REMARKS
N CHARLESTON   MOSUNNY   79  71  76 NE8       30.07R
WATERFRONT PRK   N/A     76  72  87 N7        30.04R
MOUNT PLEASANT FAIR      79  72  78 N7        30.07R
JOHNS ISLAND   FAIR      79  72  78 N9        30.07R
PINOPOLIS        N/A     77  72  83 NE7       29.99F
MONCKS CORNER  CLOUDY    77  72  83 NE3       30.08S HAZE
SUMMERVILLE    NOT AVBL
BEAUFORT MCAS  MOSUNNY   78  70  76 N8        30.07S
BEAUFORT ARPT  FAIR      79  72  78 NE8       30.06S HAZE
HILTON HEAD IS MOSUNNY   79  70  73 N8        30.09R
WALTERBORO     MOSUNNY   81  72  74 N6        30.08F
ALLENDALE      FAIR      77  70  78 CALM      30.09R

...SOUTHERN MIDLANDS AND PEE DEE...

CITY           SKY/WX    TMP DP  RH WIND       PRES   REMARKS
GEORGETOWN     NOT AVBL
KINGSTREE      NOT AVBL
ORANGEBURG     CLOUDY    76  70  82 NE7       30.11R HAZE
BARNWELL       FAIR      79  72  78 NE8       30.11R
AIKEN          FAIR      75  66  73 N9        30.15S
MANNING        CLOUDY    73  72  94 N5        30.10R
COLUMBIA       CLOUDY    78  71  79 NE7       30.11S
SUMTER         PTSUNNY   77  72  83 NE12      30.10R
FLORENCE       CLOUDY    78  72  81 NE13      30.11S
MYRTLE BEACH   MOSUNNY   79  70  73 NE10      30.09R
N MYRTLE BEACH MOSUNNY   79  72  79 N9G17     30.08R

$$

GAZ063-065-086>088-099>101-113>116-118-119-134>141-150-051500-
...SOUTHEAST GEORGIA...

CITY           SKY/WX    TMP DP  RH WIND       PRES   REMARKS
SAVANNAH ARPT  MOSUNNY   79  70  74 E6        30.08R
HUNTER AAF     SUNNY     80  75  83 NE7       30.05R
FORT STEWART   SUNNY     79  71  76 E3        30.05S
STATESBORO     MOSUNNY   77  74  92 CALM      30.09S
SYLVANIA       NOT AVBL
CLAXTON        NOT AVBL

...CSRA...CENTRAL AND FAR SOUTHEAST GEORGIA...

CITY           SKY/WX    TMP DP  RH WIND       PRES   REMARKS
THOMSON        MOSUNNY   76  72  87 NE6       30.16S
AUGUSTA-BUSH   PTSUNNY   79  70  74 N5        30.10R
AUGUSTA-DANIEL MOSUNNY   80  69  69 NE8       30.12R
SWAINSBORO     FAIR      77  72  83 NE5       30.12R
VIDALIA        MOSUNNY   79  72  78 E13       30.09S
EASTMAN        FAIR      80  76  87 NE8       30.11R
HAZLEHURST     FAIR      82  74  79 E3        30.07S
ALMA           SUNNY     79  74  84 VRB3      30.07R
WAYCROSS       CLOUDY    79  79  98 E5        30.07R FOG
JESUP          FAIR      82  79  89 E6        30.06S HX  93
BAXLEY         FAIR      82  75  78 E6        30.07S
BRUNSWICK      SUNNY     81  75  83 NE7       30.06R
SAINT SIMONS   SUNNY     83  72  69 NE12      30.05R

$$

SCZ027-028-034-036>038-045-046-048>050-GAZ119-141-051500-
...LAKE AND SUPPLEMENTAL COASTAL OBSERVATIONS...

STATION/POSITION TIME  TEMP    WIND        PRES    WAVE   SWELL
                       AIR SEA DIR/SP/G            HT/PER HT/PER/DIR
                 (UTC) (F)     (DEG/KT/KT) (MB)    (FT/S) (FT/S/D)
UPR LAKE MARION  NOT AVBL
WINYAH BAY       1245   73     350/  5     1017.0
LAKE MURRAY      1300   73      CALM  /  4 1019.6R
ACE BASIN NERRS  NOT AVBL
FORT PULASKI     1300   78 83   20/ 10/ 14 1018.5R
SAPELO ISLAND    1300   80      20/  6     1017.0S

$$

ANZ835-935-AMZ111-154-330-350-352-354-370-450-454-472-051500-
...C-MAN AND BUOY OBSERVATIONS...

STATION/POSITION TIME  TEMP    WIND        PRES    WAVE   SWELL
                       AIR SEA DIR/SP/G            HT/PER HT/PER/DIR
                 (UTC) (F)     (DEG/KT/KT) (MB)    (FT/S) (FT/S/D)
BUOY 41004       1350   81 84   30/ 10/ 12 1017.0R   2/ 4
BUOY 41008       1350   77 84  220/ 12/ 16 1017.9R   1/ 3
FOLLY BEACH CMAN 1300   75      10/  9/ 11 1017.9R
CAPERS NEARSHORE 1308   76      30/ 12/ 14 1018.0R
FRIPP NEARSHORE  1300   79      40/ 14/ 16 1017.5R


STATION/POSITION TIME  TEMP    WIND        PRES    WAVE   SWELL
                       AIR SEA DIR/SP/G            HT/PER HT/PER/DIR
                 (UTC) (F)     (DEG/KT/KT) (MB)    (FT/S) (FT/S/D)
5E ST. MARYS GA  1321      85                N/A     1/13
FRYING PAN BUOY  1350   81 82   20/ 17/ 21 1017.2R   3/ 4
BUOY 41025       1350   81 84   20/ 14/ 16 1017.5F   3/ 8   2/ 40/ 8
CAPE LOOKOUT NC  1300   79      30/ 15/ 20 1016.9R
BUOY 41002       1350   82 84   70/  8/ 10 1015.5R   2/ 9   2/ 90/ 9
BUOY 41010       1320   83 85   30/  8/ 10 1015.7R
ST AUGUSTINE FL  1400   83 84   60/  8/ 10 1017.3R


$$



USA.gov is the U.S. government's official web portal to all federal, state and local government web resources and services.